User: anonymous   Login
Location: Unspecified
(0.0000°N, 0.0000°E)
Time: 02:06:28
(UTC+00:00)
Language:

TBA - TO BE ASSIGNED - Orbit

View from above orbital plane
View from above orbital plane
View from above satellite
View from above satellite

Ground track
Ground track

The orbit is defined by the following mean orbital elements,

1 67666U          26145.06008749 +.00000000 +00000-0 +44416-3 0 00008
2 67666  97.2838 178.2732 0001571  92.0844 268.0579 15.33455091    04
Epoch (UTC): 25 May 2026 01:26:31
Eccentricity: 0.0001571
inclination: 97.2838°
perigee height: 464 km
apogee height: 467 km
right ascension of ascending node: 178.2732°
argument of perigee: 92.0844°
revolutions per day: 15.33455091
mean anomaly at epoch: 268.0579°

The dashed part of the orbit path shows where the satellite is in the earth's shadow,  

DLR